DRAGON CRS-20 (45341 NORAD) Tracking and Keplerian Element Data

This shows tracking and keplerian element data for the satellite.

Feedback or suggestion? Click here.




ElementValue
Catalog45341
NameDRAGON CRS-20
Epoch Orbit389
Epoch Day92.28342145
Epoch Year2020
RAAN9.0011
Inclination51.646
Eccentricity0.0005126
Argument of Perigee78.1559
Mean Anonmoly64.4253
Mean Motion15.48937069
Decay Rate7.49E-06
L11 45341U 20016A 20092.28342145 .00000749 00000-0 21831-4 0 9997
L22 45341 51.6460 9.0011 0005126 78.1559 64.4253 15.48937069 3897

Live tracking and technical data element details for DRAGON CRS-20 (NORAD 45341). DRAGON CRS-20 can be tracked NOW for your location showing map with azimuth and elevation plus other details from your city location.

Track the satellite on the map from your city or location and see movement details for azimuth, elevation, latitude, longitude, range, height, and movement on the map or in text.







IsCatalogInMostPopularTable: catalog: 45341, numindb: 24
Update: records affected: 1



GetName: 45341 DRAGON CRS-20

Hit Count: updated at: Mon, 06 Jul 2020 04:22:25 GMT